When you browse on this site, cookies collect data to enhance your experience and personalize the content and advertising you see.
Visit our Privacy Policy to learn more. By continuing to use the site, you agree to this use of cookies and data.
  • En España
  • Lista de países
  • Para 7 días
  • Temperatura del agua
  • El tiempo en el mapa
  • Informadores
  • user-avatar
    Iniciar sesión

    Tiempo cada hora Triest

    Hoy, 21 Septiembre, Sábado

    Tiempo Temperatura Precipitaciones Viento Presión Humedad
    00:00 +10°C° 0 mm 3 mps 766 mmHg 72%
    01:00 +10°C° 0 mm 3 mps 766 mmHg 72%
    02:00 +10°C° 0 mm 3 mps 765 mmHg 72%
    03:00 +9°C° 0 mm 3 mps 765 mmHg 71%
    04:00 +9°C° 0 mm 3 mps 765 mmHg 71%
    05:00 +10°C° 0 mm 3 mps 765 mmHg 69%
    06:00 +10°C° 0 mm 3 mps 765 mmHg 68%
    07:00 +10°C° 0 mm 3 mps 765 mmHg 66%
    08:00 +14°C° 0 mm 2 mps 765 mmHg 57%
    09:00 +17°C° 0 mm 2 mps 765 mmHg 49%
    10:00 +21°C° 0 mm 1 mps 765 mmHg 41%
    11:00 +22°C° 0 mm 1 mps 764 mmHg 39%
    12:00 +23°C° 0 mm 1 mps 764 mmHg 38%
    13:00 +24°C° 0 mm 1 mps 764 mmHg 37%
    14:00 +24°C° 0 mm 1 mps 763 mmHg 41%
    15:00 +23°C° 0 mm 1 mps 763 mmHg 45%
    16:00 +21°C° 0 mm 2 mps 763 mmHg 49%
    17:00 +20°C° 0 mm 1 mps 763 mmHg 59%
    18:00 +16°C° 0 mm 1 mps 763 mmHg 69%
    19:00 +14°C° 0 mm 1 mps 763 mmHg 79%
    20:00 +14°C° 0 mm 1 mps 763 mmHg 79%
    21:00 +13°C° 0 mm 1 mps 763 mmHg 79%
    22:00 +13°C° 0 mm 1 mps 763 mmHg 79%
    23:00 +13°C° 0 mm 1 mps 763 mmHg 76%

    Mañana, 22 Septiembre, Domingo

    Tiempo Temperatura Precipitaciones Viento Presión Humedad
    00:00 +13°C° 0 mm 1 mps 763 mmHg 74%
    01:00 +13°C° 0 mm 1 mps 762 mmHg 71%
    02:00 +13°C° 0 mm 1 mps 762 mmHg 69%
    03:00 +13°C° 0 mm 1 mps 762 mmHg 68%
    04:00 +13°C° 0 mm 1 mps 761 mmHg 66%
    05:00 +13°C° 0 mm 1 mps 761 mmHg 67%
    06:00 +14°C° 0 mm 1 mps 761 mmHg 67%
    07:00 +14°C° 0 mm 1 mps 761 mmHg 67%
    08:00 +17°C° 0 mm 2 mps 761 mmHg 62%
    09:00 +19°C° 0 mm 2 mps 760 mmHg 57%
    10:00 +21°C° 0 mm 2 mps 760 mmHg 52%
    11:00 +21°C° 0 mm 2 mps 760 mmHg 55%
    12:00 +21°C° 0 mm 2 mps 759 mmHg 57%
    13:00 +21°C° 0 mm 2 mps 759 mmHg 59%
    14:00 +22°C° 0 mm 1 mps 759 mmHg 63%
    15:00 +21°C° 0 mm 1 mps 758 mmHg 66%
    16:00 +21°C° 0 mm 1 mps 758 mmHg 70%
    17:00 +20°C° 0 mm 1 mps 758 mmHg 74%
    18:00 +18°C° 0 mm 2 mps 758 mmHg 78%
    19:00 +17°C° 0 mm 2 mps 758 mmHg 82%
    20:00 +17°C° 0.2 mm 2 mps 758 mmHg 85%
    21:00 +17°C° 0.2 mm 2 mps 759 mmHg 88%
    22:00 +17°C° 0.2 mm 2 mps 759 mmHg 90%
    23:00 +17°C° 0.2 mm 2 mps 758 mmHg 92%

    Pasado mañana, 23 Septiembre, Lunes

    Tiempo Temperatura Precipitaciones Viento Presión Humedad
    00:00 +19°C° 0.2 mm 1 mps 758 mmHg 94%
    01:00 +19°C° 0.2 mm 1 mps 758 mmHg 95%
    02:00 +19°C° 0.2 mm 1 mps 758 mmHg 96%
    03:00 +19°C° 0.2 mm 1 mps 757 mmHg 97%
    04:00 +20°C° 0.2 mm 1 mps 757 mmHg 98%
    05:00 +20°C° 0.2 mm 1 mps 757 mmHg 98%
    06:00 +20°C° 0.2 mm 1 mps 757 mmHg 98%
    07:00 +20°C° 0.2 mm 1 mps 757 mmHg 98%
    08:00 +21°C° 0.2 mm 1 mps 757 mmHg 97%
    09:00 +21°C° 0.2 mm 1 mps 757 mmHg 96%
    10:00 +21°C° 0.2 mm 1 mps 756 mmHg 95%
    11:00 +22°C° 0.4 mm 1 mps 756 mmHg 94%
    12:00 +22°C° 0.4 mm 1 mps 756 mmHg 93%
    13:00 +22°C° 0.4 mm 1 mps 756 mmHg 92%
    14:00 +22°C° 1.5 mm 1 mps 755 mmHg 92%
    15:00 +22°C° 1.5 mm 1 mps 755 mmHg 93%
    16:00 +22°C° 1.5 mm 1 mps 755 mmHg 93%
    17:00 +22°C° 1.7 mm 1 mps 755 mmHg 95%
    18:00 +21°C° 1.7 mm 1 mps 755 mmHg 96%
    19:00 +21°C° 1.7 mm 1 mps 756 mmHg 97%
    20:00 +20°C° 1.3 mm 1 mps 756 mmHg 97%
    21:00 +20°C° 1.3 mm 1 mps 757 mmHg 97%
    22:00 +19°C° 1.3 mm 2 mps 757 mmHg 97%
    23:00 +18°C° 0.6 mm 2 mps 757 mmHg 95%

    24 Septiembre, Martes

    Tiempo Temperatura Precipitaciones Viento Presión Humedad
    00:00 +17°C° 0.6 mm 2 mps 757 mmHg 94%
    01:00 +17°C° 0.6 mm 3 mps 757 mmHg 92%
    02:00 +16°C° 0.2 mm 3 mps 757 mmHg 92%
    03:00 +16°C° 0.2 mm 3 mps 757 mmHg 92%
    04:00 +14°C° 0.2 mm 4 mps 757 mmHg 93%
    05:00 +16°C° 0 mm 3 mps 757 mmHg 91%
    06:00 +16°C° 0 mm 3 mps 757 mmHg 90%
    07:00 +16°C° 0 mm 3 mps 757 mmHg 89%
    08:00 +18°C° 0 mm 3 mps 757 mmHg 81%
    09:00 +20°C° 0 mm 2 mps 757 mmHg 73%
    10:00 +21°C° 0 mm 2 mps 757 mmHg 65%
    11:00 +23°C° 0 mm 2 mps 757 mmHg 59%
    12:00 +25°C° 0 mm 1 mps 756 mmHg 54%
    13:00 +26°C° 0 mm 1 mps 756 mmHg 48%
    14:00 +25°C° 0 mm 1 mps 756 mmHg 51%
    15:00 +25°C° 0 mm 2 mps 755 mmHg 54%
    16:00 +24°C° 0 mm 2 mps 755 mmHg 57%
    17:00 +22°C° 0 mm 1 mps 755 mmHg 65%
    18:00 +20°C° 0 mm 1 mps 755 mmHg 74%
    19:00 +18°C° 0 mm 1 mps 755 mmHg 82%
    20:00 +18°C° 0 mm 1 mps 756 mmHg 82%
    21:00 +16°C° 0 mm 1 mps 756 mmHg 82%
    22:00 +16°C° 0 mm 1 mps 756 mmHg 81%
    23:00 +16°C° 0 mm 1 mps 756 mmHg 81%

    25 Septiembre, Miércoles

    Tiempo Temperatura Precipitaciones Viento Presión Humedad
    00:00 +16°C° 0 mm 1 mps 755 mmHg 81%
    01:00 +16°C° 0 mm 1 mps 755 mmHg 81%
    02:00 +16°C° 0 mm 1 mps 755 mmHg 81%
    03:00 +15°C° 0 mm 1 mps 755 mmHg 82%
    04:00 +15°C° 0 mm 1 mps 754 mmHg 83%
    05:00 +16°C° 0 mm 1 mps 754 mmHg 81%
    06:00 +16°C° 0 mm 1 mps 754 mmHg 79%
    07:00 +18°C° 0 mm 1 mps 754 mmHg 77%
    08:00 +19°C° 0 mm 1 mps 754 mmHg 74%
    09:00 +20°C° 0 mm 1 mps 754 mmHg 70%
    10:00 +20°C° 0 mm 0 mps 754 mmHg 67%
    11:00 +21°C° 0.1 mm 1 mps 754 mmHg 71%
    12:00 +21°C° 0.1 mm 1 mps 753 mmHg 75%
    13:00 +19°C° 0.1 mm 2 mps 753 mmHg 79%
    14:00 +19°C° 0.8 mm 2 mps 753 mmHg 84%
    15:00 +18°C° 0.8 mm 2 mps 753 mmHg 89%
    16:00 +17°C° 0.8 mm 2 mps 753 mmHg 94%
    17:00 +17°C° 0.7 mm 2 mps 753 mmHg 95%
    18:00 +17°C° 0.7 mm 2 mps 753 mmHg 95%
    19:00 +17°C° 0.7 mm 2 mps 753 mmHg 96%
    20:00 +17°C° 0.9 mm 2 mps 753 mmHg 96%
    21:00 +17°C° 0.9 mm 2 mps 753 mmHg 96%
    22:00 +17°C° 0.9 mm 2 mps 753 mmHg 96%
    23:00 +17°C° 0.6 mm 2 mps 753 mmHg 95%

    26 Septiembre, Jueves

    Tiempo Temperatura Precipitaciones Viento Presión Humedad
    00:00 +16°C° 0.6 mm 2 mps 753 mmHg 95%
    01:00 +16°C° 0.6 mm 2 mps 753 mmHg 95%
    02:00 +16°C° 0.2 mm 3 mps 753 mmHg 94%
    03:00 +16°C° 0.2 mm 3 mps 753 mmHg 94%
    04:00 +16°C° 0.2 mm 3 mps 753 mmHg 94%
    05:00 +16°C° 0.2 mm 3 mps 753 mmHg 93%
    06:00 +16°C° 0.2 mm 3 mps 753 mmHg 92%
    07:00 +16°C° 0.2 mm 3 mps 754 mmHg 91%
    08:00 +17°C° 0 mm 3 mps 754 mmHg 86%
    09:00 +19°C° 0 mm 2 mps 754 mmHg 80%
    10:00 +20°C° 0 mm 2 mps 755 mmHg 74%
    11:00 +21°C° 0 mm 2 mps 755 mmHg 68%
    12:00 +24°C° 0 mm 1 mps 754 mmHg 61%
    13:00 +25°C° 0 mm 1 mps 754 mmHg 54%
    14:00 +25°C° 0 mm 1 mps 754 mmHg 58%
    15:00 +24°C° 0 mm 2 mps 754 mmHg 63%
    16:00 +23°C° 0 mm 2 mps 754 mmHg 67%
    17:00 +21°C° 0 mm 1 mps 755 mmHg 74%
    18:00 +19°C° 0 mm 1 mps 755 mmHg 81%
    19:00 +16°C° 0 mm 0 mps 756 mmHg 89%
    20:00 +15°C° 0 mm 0 mps 756 mmHg 88%
    21:00 +16°C° 0 mm 1 mps 757 mmHg 88%
    22:00 +16°C° 0 mm 1 mps 757 mmHg 88%
    23:00 +16°C° 0 mm 1 mps 757 mmHg 87%
    Mostrar más